Erie, PA

9:08 PM EST on November 14, 2019 (GMT -0500)
Erie International

Weather History for KERI - September, 2019

Change the Weather History Date:

Tuesday, September 17, 2019

  Actual Average Record
Temperature  
Mean Temperature 67 °F 64 °F  
Max Temperature 73 °F 72 °F 88 °F (1942)
Min Temperature 60 °F 56 °F 35 °F (1959)
Degree Days  
Heating Degree Days 0 3  
Month to date heating degree days 8 33  
Since 1 July heating degree days 9 51  
Cooling Degree Days 2 2  
Month to date cooling degree days 72 53  
Year to date cooling degree days 762 611  
Growing Degree Days 17 (Base 50)    
Moisture  
Dew Point 56 °F    
Average Humidity 71    
Maximum Humidity 90    
Minimum Humidity 46    
Precipitation  
Precipitation 0.00 in 0.16 in 1.61 in (1996)
Month to date precipitation 3.12 2.43  
Year to date precipitation 29.44 28.26  
Snow  
Snow 0.00 in 0.00 in - ()
Month to date snowfall 0.0 0.0  
Since 1 July snowfall 0.0 0.0  
Since 1 September snowfall 0.0 0.0  
Snow Depth 0.00 in    
Sea Level Pressure  
Sea Level Pressure 30.16 in    
Wind  
Wind Speed 6 mph ()    
Max Wind Speed 18 mph    
Max Gust Speed 23 mph    
Visibility 9.4 miles    
Events      
T = Trace of Precipitation, MM = Missing Value Source: Averaged Metar Reports

Daily Weather History Graph

Daily Weather History Graph

Search for Another Location

Airport or City:

Astronomy

Sep. 17, 2019 Rise Set
Actual Time 7:02 AM EDT 7:27 PM EDT
Civil Twilight 6:34 AM EDT 7:55 PM EDT
Nautical Twilight 6:01 AM EDT 8:28 PM EDT
Astronomical Twilight 5:27 AM EDT 9:01 PM EDT
Moon 9:26 PM EDT (9/17) 10:08 AM EDT (9/17)
Length of Visible Light 13h 20m
Length of Day
12h 24m
Waning Gibbous, 89% of the Moon is Illuminated
Sep 17
Waning Gibbous
Sep 21
Last Quarter
Sep 28
New
Oct 5
First Quarter
Oct 13
Full

Hourly Weather History & Observations

Time (EDT) Temp. Dew Point Humidity Pressure Visibility Wind Dir Wind Speed Gust Speed Precip Events Conditions
12:00 AM 66.9 °F 61.0 °F 81% 30.11 in 10.0 mi East 10.4 mph - N/A   Scattered Clouds
12:33 AM 66.9 °F 61.0 °F 81% 30.12 in 10.0 mi NE 5.8 mph - N/A   Mostly Cloudy
12:51 AM 66.9 °F 61.0 °F 81% 30.11 in 10.0 mi NE 5.8 mph - N/A   Overcast
1:51 AM 64.9 °F 60.1 °F 84% 30.12 in 10.0 mi ENE 5.8 mph - N/A   Scattered Clouds
2:51 AM 64.0 °F 59.0 °F 84% 30.11 in 10.0 mi Calm Calm - N/A   Clear
4:51 AM 61.0 °F 57.0 °F 87% 30.12 in 10.0 mi Calm Calm - N/A   Clear
5:51 AM 60.1 °F 57.0 °F 90% 30.13 in 10.0 mi Calm Calm - N/A   Clear
6:51 AM 60.1 °F 57.0 °F 90% 30.15 in 10.0 mi Calm Calm - N/A   Clear
7:13 AM 61.0 °F 57.9 °F 90% 30.16 in 5.0 mi ESE 3.5 mph - N/A   Scattered Clouds
7:22 AM 61.0 °F 57.9 °F 90% 30.17 in 3.0 mi Calm Calm - N/A   Mostly Cloudy
7:51 AM 62.1 °F 59.0 °F 90% 30.17 in 5.0 mi Calm Calm - N/A   Overcast
8:25 AM 64.0 °F 60.1 °F 87% 30.18 in 10.0 mi Calm Calm - N/A   Mostly Cloudy
8:42 AM 64.9 °F 60.1 °F 84% 30.19 in 10.0 mi East 4.6 mph - N/A   Scattered Clouds
8:51 AM 64.9 °F 60.1 °F 84% 30.19 in 10.0 mi ESE 4.6 mph - N/A   Partly Cloudy
9:51 AM 69.1 °F 54.0 °F 58% 30.19 in 10.0 mi East 6.9 mph - N/A   Clear
10:51 AM 72.0 °F 50.0 °F 46% 30.19 in 10.0 mi East 5.8 mph - N/A   Clear
11:51 AM 73.0 °F 52.0 °F 48% 30.19 in 10.0 mi NNE 10.4 mph - N/A   Clear
12:51 PM 73.0 °F 53.1 °F 49% 30.19 in 10.0 mi NNE 9.2 mph - N/A   Clear
1:51 PM 72.0 °F 54.0 °F 53% 30.18 in 10.0 mi NE 15.0 mph - N/A   Clear
2:51 PM 72.0 °F 53.1 °F 51% 30.17 in 10.0 mi NNE 13.8 mph - N/A   Clear
3:51 PM 72.0 °F 55.0 °F 55% 30.16 in 10.0 mi NE 15.0 mph 23.0 mph N/A   Clear
4:51 PM 72.0 °F 55.0 °F 55% 30.16 in 10.0 mi NNE 15.0 mph - N/A   Clear
5:51 PM 72.0 °F 53.1 °F 51% 30.17 in 10.0 mi NE 16.1 mph - N/A   Clear
6:51 PM 70.0 °F 51.1 °F 51% 30.17 in 10.0 mi NE 10.4 mph - N/A   Clear
7:51 PM 66.9 °F 53.1 °F 61% 30.16 in 10.0 mi ENE 8.1 mph - N/A   Clear
8:51 PM 64.0 °F 53.1 °F 67% 30.17 in 10.0 mi ENE 8.1 mph - N/A   Clear
9:51 PM 64.9 °F 54.0 °F 68% 30.18 in 10.0 mi East 8.1 mph - N/A   Clear
10:51 PM 63.0 °F 53.1 °F 70% 30.19 in 10.0 mi East 6.9 mph - N/A   Clear
11:51 PM 63.0 °F 50.0 °F 63% 30.18 in 10.0 mi ESE 5.8 mph - N/A   Clear